| time (UTC) | temp C | wind direction | speed KPH | gust KPH | rain 1hr cm | rain 24hr cm | rain mn cm | humidity % | barometer mb |
| 20260504050010 | 14 | 216 | 3.2 | 19.3 | 0.00 | 0.00 | 0.00 | 41 | 997.8 |
| 20260504044505 | 14 | 182 | 1.6 | 11.3 | 0.00 | 0.00 | 0.00 | 42 | 998.2 |
| 20260504043002 | 13 | 176 | 3.2 | 11.3 | 0.00 | 0.00 | 0.00 | 42 | 998.6 |
| 20260504041603 | 13 | 202 | 1.6 | 9.7 | 0.00 | 0.00 | 0.00 | 42 | 999.0 |
| 20260504040057 | 13 | 179 | 1.6 | 11.3 | 0.00 | 0.00 | 0.00 | 42 | 999.3 |
| 20260504034554 | 13 | 199 | 1.6 | 12.9 | 0.00 | 0.00 | 0.00 | 42 | 999.8 |
| 20260504033051 | 13 | 67 | 0.0 | 9.7 | 0.00 | 0.00 | 0.00 | 42 | 1000.1 |
| 20260504031550 | 13 | 221 | 0.0 | 6.4 | 0.00 | 0.00 | 0.00 | 41 | 1000.4 |
| 20260504030045 | 13 | 200 | 0.0 | 8.0 | 0.00 | 0.00 | 0.00 | 42 | 1000.8 |
| 20260504024558 | 13 | 182 | 0.0 | 9.7 | 0.00 | 0.00 | 0.00 | 42 | 1001.2 |
| 20260504023041 | 13 | 177 | 0.0 | 1.6 | 0.00 | 0.00 | 0.00 | 42 | 1001.3 |
| 20260504021542 | 13 | 216 | 0.0 | 0.0 | 0.00 | 0.00 | 0.00 | 42 | 1001.6 |
| 20260504020042 | 14 | 216 | 0.0 | 3.2 | 0.00 | 0.00 | 0.00 | 41 | 1001.9 |
| 20260504014536 | 15 | 241 | 0.0 | 4.8 | 0.00 | 0.00 | 0.00 | 39 | 1002.1 |
| 20260504013036 | 15 | 246 | 0.0 | 4.8 | 0.00 | 0.00 | 0.00 | 38 | 1002.3 |
| 20260504011534 | 16 | 250 | 1.6 | 8.0 | 0.00 | 0.00 | 0.00 | 36 | 1002.4 |
| 20260504010030 | 16 | 247 | 3.2 | 11.3 | 0.00 | 0.00 | 0.00 | 35 | 1002.6 |
| 20260504004530 | 17 | 261 | 3.2 | 9.7 | 0.00 | 0.00 | 0.00 | 34 | 1002.7 |
| 20260504003038 | 17 | 257 | 4.8 | 11.3 | 0.00 | 0.00 | 0.00 | 32 | 1002.8 |
| 20260504001528 | 17 | 261 | 4.8 | 17.7 | 0.00 | 0.00 | 0.00 | 31 | 1002.8 |
| 20260504000050 | 18 | 248 | 4.8 | 12.9 | 0.00 | 0.00 | 0.00 | 29 | 1002.8 |
| 20260503234525 | 18 | 270 | 1.6 | 14.5 | 0.00 | 0.00 | 0.00 | 30 | 1003.0 |
| 20260503233023 | 18 | 263 | 4.8 | 12.9 | 0.00 | 0.00 | 0.00 | 29 | 1003.2 |
| 20260503231522 | 18 | 272 | 6.4 | 12.9 | 0.00 | 0.00 | 0.00 | 29 | 1003.4 |
| 20260503230020 | 18 | 270 | 4.8 | 16.1 | 0.00 | 0.00 | 0.00 | 30 | 1003.6 |
| 20260503224520 | 18 | 285 | 0.0 | 12.9 | 0.00 | 0.00 | 0.00 | 29 | 1003.6 |
| 20260503223019 | 18 | 269 | 6.4 | 14.5 | 0.00 | 0.00 | 0.00 | 28 | 1003.6 |
| 20260503221517 | 18 | 260 | 4.8 | 19.3 | 0.00 | 0.00 | 0.00 | 28 | 1003.6 |
| 20260503220016 | 18 | 244 | 11.3 | 19.3 | 0.00 | 0.00 | 0.00 | 28 | 1003.8 |
| 20260503214515 | 18 | 250 | 11.3 | 20.9 | 0.00 | 0.00 | 0.00 | 28 | 1003.9 |
| 20260503213011 | 18 | 250 | 6.4 | 19.3 | 0.00 | 0.00 | 0.00 | 28 | 1004.2 |
| 20260503211514 | 18 | 262 | 9.7 | 19.3 | 0.00 | 0.00 | 0.00 | 29 | 1004.4 |
| 20260503210008 | 18 | 248 | 8.0 | 20.9 | 0.00 | 0.00 | 0.00 | 30 | 1004.6 |
| 20260503204504 | 17 | 263 | 9.7 | 20.9 | 0.00 | 0.00 | 0.00 | 29 | 1004.8 |
| 20260503203002 | 17 | 304 | 4.8 | 17.7 | 0.00 | 0.00 | 0.00 | 30 | 1005.2 |
| 20260503201501 | 17 | 271 | 9.7 | 19.3 | 0.00 | 0.00 | 0.00 | 30 | 1005.4 |
| 20260503200001 | 16 | 269 | 12.9 | 22.5 | 0.00 | 0.00 | 0.00 | 31 | 1005.6 |
| 20260503194601 | 17 | 275 | 11.3 | 29.0 | 0.00 | 0.00 | 0.00 | 30 | 1005.6 |
| 20260503193100 | 16 | 285 | 16.1 | 33.8 | 0.00 | 0.00 | 0.00 | 30 | 1005.8 |
| 20260503191604 | 16 | 263 | 11.3 | 24.1 | 0.00 | 0.00 | 0.00 | 30 | 1005.8 |
| 20260503184558 | 17 | 279 | 9.7 | 19.3 | 0.00 | 0.00 | 0.00 | 30 | 1006.1 |
| 20260503183056 | 17 | 327 | 4.8 | 16.1 | 0.00 | 0.00 | 0.00 | 30 | 1006.4 |
| 20260503181603 | 17 | 306 | 3.2 | 9.7 | 0.00 | 0.00 | 0.00 | 29 | 1006.3 |
| 20260503180053 | 17 | 293 | 4.8 | 12.9 | 0.00 | 0.00 | 0.00 | 31 | 1006.6 |
| 20260503174552 | 17 | 292 | 1.6 | 17.7 | 0.00 | 0.00 | 0.00 | 28 | 1006.6 |
| 20260503173056 | 16 | 311 | 4.8 | 14.5 | 0.00 | 0.00 | 0.00 | 26 | 1006.7 |
| 20260503171546 | 16 | 22 | 3.2 | 14.5 | 0.00 | 0.00 | 0.00 | 26 | 1006.8 |
| 20260503081531 | 8 | 88 | 0.0 | 0.0 | 0.00 | 0.00 | 0.00 | 68 | 1005.6 |